Location: Unspecified
(50.7822°N, 1.1356°W)
Time: 23:33:52
(UTC+01:00)

CZ-3 Stage 3 - Visible Passes

Search period start: 22 July 2018 00:00
Search period end: 01 August 2018 00:00
Orbit: 388 x 34806 km, 30.7° (Epoch: 22 July)

Date Brightness Start Highest point End Pass type
(mag) Time Alt. Az. Time Alt. Az. Time Alt. Az.
22 Jul 7.2 22:22:52 10° S 03:09:30 37° SW 07:02:25 10° SE visible
23 Jul 8.1 19:46:54 10° SE 02:19:58 55° SSE 03:24:06 10° E visible
24 Jul 8.8 19:44:41 10° E 22:21:17 24° E 23:29:11 10° ENE visible
25 Jul 7.2 22:10:51 10° S 02:54:04 38° SW 06:52:30 10° SE visible
26 Jul 8.0 19:32:34 10° SE 02:08:17 56° SSE 03:14:10 10° E visible
27 Jul 8.8 19:29:43 10° E 22:09:56 25° E 23:19:14 10° ENE visible
28 Jul 7.2 21:58:52 10° S 02:39:14 39° SW 06:42:33 10° SE visible
29 Jul 8.0 19:18:19 10° SE 01:56:28 56° SSE 03:04:10 10° E visible
30 Jul 8.8 19:14:51 10° E 21:58:31 25° E 23:09:11 10° ENE visible
31 Jul 6.7 03:20:04 10° WSW 03:49:11 10° WSW 04:22:37 10° W visible
